FW0208 Weather Reports


time (UTC)temp
C
wind
direction
speed
KPH
gust
KPH
rain 1hr
cm
rain 24hr
cm
rain mn
cm
humidity
%
barometer
mb
20260507191555 12 346 4.8 8.0 0.00 0.00 0.00 71 1014.7
20260507190054 13 10 4.8 8.0 0.00 0.00 0.00 71 1014.7
20260507184603 13 355 1.6 12.9 0.00 0.00 0.00 70 1014.7
20260507183053 13 343 4.8 9.7 0.00 0.00 0.00 70 1014.6
20260507181552 13 5 3.2 8.0 0.00 0.00 0.00 70 1014.7
20260507180056 13 327 4.8 9.7 0.00 0.00 0.00 69 1014.7
20260507174551 13 342 4.8 14.5 0.00 0.00 0.00 69 1014.7
20260507173051 14 319 4.8 9.7 0.00 0.00 0.00 68 1014.6
20260507171551 14 341 4.8 9.7 0.00 0.00 0.00 68 1014.6
20260507170050 15 329 4.8 12.9 0.00 0.00 0.00 66 1014.7
20260507164549 15 50 1.6 9.7 0.00 0.00 0.00 63 1014.7
20260507163049 15 53 6.4 16.1 0.00 0.00 0.00 63 1014.6
20260507161549 15 63 6.4 12.9 0.00 0.00 0.00 63 1014.6
20260507160048 15 26 6.4 14.5 0.00 0.00 0.00 64 1014.5
20260507154547 15 11 6.4 12.9 0.00 0.00 0.00 56 1014.6
20260507153148 15 96 1.6 6.4 0.00 0.00 0.00 55 1014.5
20260507151545 15 104 1.6 4.8 0.00 0.00 0.00 55 1014.6
20260507150046 15 198 0.0 3.2 0.00 0.00 0.00 55 1014.5
20260507144545 15 44 1.6 8.0 0.00 0.00 0.00 56 1014.5
20260507143044 15 46 0.0 6.4 0.00 0.00 0.00 54 1014.5
20260507141544 15 5 0.0 4.8 0.00 0.00 0.00 55 1014.5
20260507140043 15 19 1.6 9.7 0.00 0.00 0.00 56 1014.6
20260507134542 15 303 3.2 6.4 0.00 0.00 0.00 53 1014.7
20260507133041 15 313 3.2 6.4 0.00 0.00 0.00 54 1014.7
20260507131558 15 346 3.2 11.3 0.00 0.00 0.00 54 1014.7
20260507130042 15 345 4.8 12.9 0.00 0.00 0.00 52 1014.7
20260507124538 15 266 3.2 14.5 0.00 0.00 0.00 52 1014.7
20260507123037 16 317 4.8 12.9 0.00 0.00 0.00 51 1014.6
20260507121537 15 338 8.0 14.5 0.00 0.00 0.00 52 1014.6
20260507120035 15 344 4.8 12.9 0.00 0.00 0.00 55 1014.6
20260507114539 16 360 6.4 12.9 0.00 0.00 0.00 56 1014.5
20260507113035 16 340 6.4 19.3 0.00 0.00 0.00 58 1014.5
20260507111533 17 355 8.0 16.1 0.00 0.00 0.00 58 1014.6
20260507110033 17 324 6.4 16.1 0.00 0.00 0.00 56 1014.6
20260507104532 16 335 9.7 14.5 0.00 0.00 0.00 59 1014.8
20260507103031 16 45 1.6 11.3 0.00 0.00 0.00 59 1014.8
20260507101527 15 55 3.2 8.0 0.00 0.00 0.00 59 1014.8
20260507100032 16 56 4.8 11.3 0.00 0.00 0.00 59 1014.7
20260507094521 16 42 3.2 12.9 0.00 0.00 0.00 61 1014.6
20260507093018 15 5 4.8 11.3 0.00 0.00 0.00 62 1014.6
20260507091522 15 334 4.8 12.9 0.00 0.00 0.00 64 1014.6
20260507090011 15 49 4.8 12.9 0.00 0.00 0.00 66 1014.4
20260507084507 15 15 4.8 12.9 0.00 0.00 0.00 65 1014.4
20260507083004 15 355 3.2 8.0 0.00 0.00 0.00 65 1014.4
20260507081610 14 11 3.2 9.7 0.00 0.00 0.00 65 1014.4
20260507080108 13 40 3.2 9.7 0.00 0.05 0.00 67 1014.4
20260507074551 12 50 4.8 9.7 0.00 0.05 0.00 73 1014.4
20260507073046 11 59 4.8 12.9 0.00 0.05 0.00 77 1014.2
20260507071601 11 51 6.4 12.9 0.00 0.05 0.00 80 1014.2
20260507070041 10 42 3.2 9.7 0.00 0.05 0.00 81 1014.2
20260507064538 10 53 4.8 8.0 0.00 0.05 0.00 82 1014.1
20260507063042 10 36 3.2 14.5 0.00 0.05 0.00 82 1014.1
20260507061532 10 42 6.4 14.5 0.00 0.05 0.00 84 1013.9
20260507060035 9 34 4.8 14.5 0.00 0.05 0.00 85 1013.9
20260507054526 9 5 3.2 6.4 0.00 0.05 0.00 86 1013.8
20260507053025 8 337 0.0 8.0 0.00 0.05 0.00 85 1013.7
20260507051529 8 47 4.8 14.5 0.00 0.05 0.00 85 1013.5
20260507050021 8 26 4.8 9.7 0.00 0.05 0.00 85 1013.3
20260507044514 8 40 4.8 9.7 0.00 0.05 0.00 85 1013.2
20260507043013 8 58 4.8 12.9 0.00 0.05 0.00 85 1013.0
20260507041511 8 43 3.2 9.7 0.00 0.05 0.00 85 1013.0
20260507040009 8 24 1.6 9.7 0.00 0.05 0.00 85 1012.8
20260507034514 8 30 1.6 6.4 0.00 0.05 0.00 85 1012.7
20260507033013 8 49 4.8 11.3 0.00 0.05 0.00 85 1012.6
20260507031559 8 44 3.2 9.7 0.00 0.05 0.00 86 1012.5
20260507030057 8 51 0.0 3.2 0.00 0.05 0.00 85 1012.4
20260507024602 8 71 0.0 0.0 0.00 0.05 0.00 85 1012.4
20260507023156 8 71 0.0 0.0 0.00 0.05 0.00 85 1012.3
20260507021551 8 73 0.0 1.6 0.00 0.05 0.00 85 1012.3
20260507020051 8 51 0.0 0.0 0.00 0.05 0.00 84 1012.1
20260507014559 8 51 0.0 0.0 0.00 0.05 0.00 84 1012.0
20260507013050 8 51 0.0 0.0 0.00 0.05 0.00 84 1011.9
20260507011548 8 51 0.0 0.0 0.00 0.05 0.00 83 1011.9
20260507010049 8 51 0.0 0.0 0.00 0.05 0.00 83 1012.0
20260507004547 8 51 0.0 0.0 0.00 0.05 0.00 83 1011.8
20260507003044 8 51 0.0 0.0 0.00 0.05 0.00 83 1011.8
20260507001549 8 51 0.0 0.0 0.00 0.05 0.00 82 1011.8
20260507000041 8 51 0.0 0.0 0.00 0.05 0.00 82 1011.8
20260506234539 8 51 0.0 3.2 0.00 0.05 0.00 81 1011.7
20260506233039 8 52 0.0 0.0 0.00 0.05 0.00 81 1011.7
20260506231538 8 52 0.0 0.0 0.00 0.05 0.00 81 1011.7
20260506230037 8 52 0.0 0.0 0.00 0.05 0.00 79 1011.5
20260506224535 8 52 0.0 1.6 0.00 0.05 0.00 79 1011.4
20260506223033 9 52 0.0 0.0 0.00 0.05 0.00 78 1011.3
20260506221530 9 52 1.6 4.8 0.00 0.05 0.00 78 1011.3
20260506220036 9 49 0.0 0.0 0.00 0.05 0.05 77 1011.3
20260506214527 9 49 0.0 0.0 0.00 0.05 0.05 75 1011.2
20260506213030 9 49 0.0 0.0 0.00 0.05 0.05 74 1011.1
20260506211526 10 50 0.0 0.0 0.00 0.05 0.05 73 1011.0
20260506210024 10 49 0.0 0.0 0.00 0.05 0.05 72 1010.9
20260506204522 10 57 0.0 0.0 0.00 0.05 0.05 70 1010.8
20260506203021 10 57 0.0 4.8 0.00 0.05 0.05 70 1010.6
20260506201519 11 58 1.6 6.4 0.00 0.05 0.05 69 1010.5
20260506200021 11 65 1.6 4.8 0.00 0.05 0.05 68 1010.6
20260506194515 11 59 1.6 6.4 0.00 0.05 0.05 67 1010.4
20260506193011 11 37 6.4 9.7 0.00 0.05 0.05 66 1010.3